Location: Quaker Farms
(41.4276°N, 73.1557°W)
Time: 02:19:42
(UTC+00:00)

Altair - Pass Details

Date: 23 June 2021
Orbit: 1501 x 1682 km, 47.2° (Epoch: 23 July)

Event Time Altitude Azimuth Distance (km) Brightness Sun altitude
Rises 15:53:47 0° 214° (SSW) 4,630 10.1 67.9°
Reaches altitude 10° 15:56:54 10° 208° (SSW) 3,662 9.8 68.3°
Maximum altitude 16:05:36 48° 138° (SE) 1,932 9.7 69.2°
Drops below altitude 10° 16:14:35 10° 68° (ENE) 3,789 9.7 70.1°
Sets 16:17:51 0° 63° (ENE) 4,802 10.1 70.4°
